Home   Weather   Erding   Past weeks

Flag for Germany Past Weather in Erding, Bavaria, Germany — Yesterday and Last 2 Weeks

54 °F


Feels Like: 53 °F
Forecast: 38 / 53 °F
Wind: 5 mph from Northeast

Location: Munich / Franz Josef Strauss Airport

Current Time: Oct 26, 2016 at 5:27:59 PM

Latest Report: Oct 26, 2016 at 4:50 PM

Visibility: N/A

Pressure: 30.33 "Hg

Humidity: 82%

Dew Point: 48 °F

Location of ErdingLocation

Past Weather in Erding — Graph


Erding Temperature Yesterday

Maximum temperature yesterday: 59 °F (at 11:20 AM)
Minimum temperature yesterday: 43 °F (at 12:50 AM)
Average temperature yesterday: 53 °F

High & Low Weather Summary for the Past Weeks

High66 °F (Oct 16, 3:50 PM)100% (Oct 11, 9:50 PM)30.33 "Hg (Oct 11, 9:50 PM)
Low28 °F (Oct 23, 5:20 AM)54% (Oct 22, 2:20 PM)29.65 "Hg (Oct 14, 11:20 PM)
Average48 °F89%30.04 "Hg
* Reported Oct 11 4:20 PM — Oct 26 4:20 PM, Erding, Weather by CustomWeather, © 2016

Note: Actual official high and low records may vary slightly from our data, if they occured in-between our weather recording intervals... More about our weather records


Erding Weather History for the Previous 24 Hours

Scroll right to see more
Time TempWeatherWind HumidityBarometerVisibility
4:20 PM
Wed, Oct 26
54 °FOvercast.5 mph82%30.33 "HgN/A
3:50 PM55 °FOvercast.7 mph77%30.33 "HgN/A
3:20 PM55 °FOvercast.6 mph77%30.33 "HgN/A
2:50 PM55 °FPartly sunny.5 mph72%30.30 "HgN/A
2:20 PM55 °FPartly sunny.3 mph72%30.33 "HgN/A
1:50 PM55 °FScattered clouds.3 mph77%30.33 "HgN/A
1:20 PM55 °FScattered clouds.2 mph77%30.33 "HgN/A
12:50 PM54 °FPartly sunny.2 mph88%30.33 "HgN/A
12:20 PM54 °FBroken clouds.3 mph88%30.33 "HgN/A
11:50 AM52 °FBroken clouds.2 mph100%30.33 "Hg4 mi
11:20 AM50 °FFog.1 mph100%30.33 "Hg3 mi
10:50 AM48 °FFog.1 mph100%30.33 "Hg3 mi
10:20 AM48 °FFog.1 mph100%30.33 "Hg2 mi
9:50 AM48 °FFog.1 mph100%30.33 "Hg2 mi
9:20 AM46 °FFog.No wind100%30.33 "Hg2 mi
8:50 AM46 °FFog.1 mph100%30.33 "Hg2 mi
8:20 AM46 °FCool.2 mph100%30.33 "Hg1 mi
7:50 AM46 °FCool.2 mph100%30.30 "Hg1 mi
7:20 AM46 °FFog.2 mph100%30.30 "Hg1 mi
6:50 AM46 °FFog.2 mph100%30.30 "Hg0 mi
6:20 AM46 °FFog.3 mph100%30.30 "Hg0 mi
5:50 AM46 °FFog.2 mph100%30.30 "Hg0 mi
5:20 AM45 °FFog.2 mph100%30.27 "Hg1 mi
4:50 AM46 °FFog.2 mph100%30.27 "Hg1 mi
4:20 AM46 °FCool.1 mph100%30.27 "Hg3 mi
3:50 AM46 °FFog.1 mph100%30.27 "Hg3 mi
3:20 AM46 °FFog.2 mph100%30.27 "Hg3 mi
2:50 AM46 °FPassing clouds.2 mph100%30.27 "Hg4 mi
2:20 AM46 °FLight fog.2 mph100%30.27 "Hg5 mi
1:50 AM45 °FQuite cool.1 mph100%30.27 "HgN/A
1:20 AM46 °FCool.2 mph100%30.27 "HgN/A
12:50 AM48 °FFog.2 mph100%30.27 "HgN/A
12:20 AM46 °FFog.6 mph100%30.27 "HgN/A
11:50 PM
Tue, Oct 25
48 °FFog.2 mph100%30.27 "HgN/A
11:20 PM50 °FFog.No wind100%30.24 "HgN/A
10:50 PM52 °FPassing clouds.1 mph100%30.27 "HgN/A
10:20 PM52 °FPassing clouds.1 mph100%30.24 "HgN/A
9:50 PM54 °FPassing clouds.2 mph94%30.24 "HgN/A
9:20 PM54 °FPassing clouds.2 mph100%30.24 "HgN/A
8:50 PM54 °FPassing clouds.2 mph100%30.24 "HgN/A
8:20 PM54 °FPassing clouds.2 mph100%30.24 "Hg4 mi
7:50 PM54 °FPassing clouds.3 mph100%30.24 "HgN/A
7:20 PM54 °FPassing clouds.1 mph100%30.21 "Hg6 mi
6:50 PM54 °FPassing clouds.5 mph100%30.21 "Hg4 mi
6:20 PM55 °FPassing clouds.5 mph94%30.21 "HgN/A
5:50 PM57 °FBroken clouds.5 mph88%30.21 "HgN/A
5:20 PM57 °FPartly sunny.6 mph88%30.18 "HgN/A
Weather by CustomWeather, © 2016

See weather overviewHow to use our weather pages